Flag for Switzerland Weather past 2 weeks in Davos, Graubünden, Switzerland

Now
63 °F

Mild.


Feels Like: 63 °F
Forecast: 45 / 59 °F
Wind: 3 mph from North

Location: Chur-Ems

Current Time: Aug 29, 2014 at 10:16:38 PM

Latest Report: Aug 29, 2014 at 9:00 PM


Visibility: N/A

Pressure: 30.09 "Hg

Humidity: 95%

Dew point: 61 °F

Location of DavosLocation

Historic Weather in Davos — Graph

°F

Davos temperature yesterday

Maximum temperature yesterday: 74 °F (at 4:00 PM)
Minimum temperature yesterday: 53 °F (at 5:00 AM)
Average temperature yesterday: 63 °F

Past Weeks' High & Low Weather Summary

 TemperatureHumidityPressure
High74 °F (Aug 28, 4:00 PM)97% (Aug 27, 3:00 AM)30.24 "Hg (Aug 27, 3:00 AM)
Low46 °F (Aug 25, 4:00 AM)35% (Aug 17, 1:00 PM)29.76 "Hg (Aug 18, 3:00 PM)
Average59 °F73%30.00 "Hg
* Reported Aug 14 8:00 PM — Aug 29 8:00 PM, Davos, Weather by CustomWeather, © 2014

Note: Actual official high and low records may vary slightly from our data, if they occured in-between our weather recording intervals... More about our weather records

Advertising

Davos weather history for previous 24 hours

 ConditionsComfort  
Time TempWeatherWind HumidityBarometerVisibility
8:00 PM
Aug 29
63 °FRain. Overcast.3 mph94%30.06 "Hg5 mi
7:00 PM65 °FMild.5 mph90%30.05 "HgN/A
6:00 PM70 °FMild.13 mph67%29.97 "HgN/A
5:00 PM72 °FScattered clouds.12 mph62%29.95 "Hg12 mi
4:00 PM72 °FMild.16 mph57%29.97 "HgN/A
3:00 PM73 °FMild.10 mph58%29.98 "HgN/A
2:00 PM72 °FPartly sunny.12 mph57%30.00 "Hg16 mi
1:00 PM69 °FMild.9 mph65%30.04 "HgN/A
12:00 PM68 °FMild.2 mph61%30.05 "HgN/A
11:00 AM65 °FOvercast.1 mph66%30.07 "Hg6 mi
10:00 AM64 °FMild.7 mph65%30.08 "HgN/A
9:00 AM63 °FMild.5 mph68%30.08 "HgN/A
8:00 AM59 °FFog.5 mph77%30.10 "Hg7 mi
7:00 AM57 °FCool.5 mph84%30.11 "HgN/A
6:00 AM57 °FCool.6 mph86%30.10 "HgN/A
5:00 AM57 °FPassing clouds.2 mph87%30.11 "Hg12 mi
4:00 AM58 °FCool.2 mph87%30.10 "HgN/A
3:00 AM59 °FCool.1 mph86%30.10 "HgN/A
2:00 AM60 °FPassing clouds.3 mph86%30.10 "Hg12 mi
1:00 AM61 °FCool.3 mph84%30.10 "HgN/A
12:00 AM60 °FCool.1 mph85%30.11 "HgN/A
11:00 PM
Aug 28
60 °FPassing clouds.No wind85%30.09 "Hg12 mi
10:00 PM62 °FCool.2 mph80%30.07 "HgN/A
Weather by CustomWeather, © 2014

See weather overviewHow to use our weather pages